Observations for Trim Patrick St
| Time | AQI | Temp °C | Hum % | Pres Pa | CO μg/m³ | H₂S μg/m³ | NO μg/m³ | NO₂ μg/m³ | O₃ μg/m³ | SO₂ μg/m³ | PM1 μg/m³ | PM2.5 μg/m³ | PM10 μg/m³ |
|---|---|---|---|---|---|---|---|---|---|---|---|---|---|
| Thursday 27 August 2026 | |||||||||||||
| 01:16 | 3 | 15.4 | 86 | 38,460 | 0.19 | 2.78 | 1.76 | 21.74 | 22.42 | 0 | 22.57 | 32.3 | 34.63 |
| 01:15 | 3 | 15.4 | 86 | 38,460 | 0.19 | 2.24 | 1.76 | 16.64 | 29.16 | 0 | 21.72 | 30.92 | 31.39 |
| 01:14 | 3 | 15.5 | 86 | 38,460 | 0.19 | 2.89 | 1.65 | 22.48 | 19.98 | 0 | 20.86 | 30.25 | 31.42 |
| 01:13 | 3 | 15.4 | 86 | 38,460 | 0.19 | 1.82 | 1.56 | 18.15 | 27.57 | 0 | 22.57 | 30.94 | 32.72 |
| 01:12 | 3 | 15.5 | 86 | 38,460 | 0.18 | 1.24 | 1.55 | 16.24 | 29.46 | 0 | 21.72 | 30.94 | 34.03 |
| 01:11 | 3 | 15.5 | 86 | 38,460 | 0.18 | 1.71 | 1.35 | 16.09 | 29.45 | 0 | 21.72 | 31.61 | 32.04 |
| 01:10 | 3 | 15.5 | 86 | 38,460 | 0.18 | 1.82 | 1.32 | 16.42 | 30.39 | 0 | 22.57 | 31.62 | 32.07 |
| 01:09 | 3 | 15.5 | 86 | 38,460 | 0.18 | 1.69 | 1.2 | 17.07 | 29.77 | 0 | 22.57 | 30.92 | 32.04 |
| 01:08 | 3 | 15.5 | 86 | 38,460 | 0.18 | 1.61 | 1.49 | 15.39 | 31.38 | 0 | 22.57 | 33.68 | 34.02 |
| 01:07 | 3 | 15.5 | 86 | 38,460 | 0.18 | 2.52 | 1.34 | 18.44 | 26.61 | 0 | 21.72 | 30.92 | 33.33 |
| 01:06 | 3 | 15.5 | 86 | 38,460 | 0.18 | 2.26 | 1.41 | 17.03 | 27.6 | 0 | 21.72 | 31.62 | 33.37 |
| 01:05 | 3 | 15.5 | 86 | 38,460 | 0.19 | 1.9 | 1.56 | 16.39 | 30.22 | 0 | 22.57 | 31.64 | 34.8 |
| 01:04 | 3 | 15.5 | 86 | 38,460 | 0.18 | 2.57 | 1.77 | 15.24 | 32.03 | 0 | 20 | 30.95 | 34.05 |
| 01:03 | 3 | 15.5 | 86 | 38,460 | 0.18 | 3.25 | 1.64 | 20.18 | 23.32 | 0 | 22.57 | 32.33 | 35.35 |
| 01:02 | 3 | 15.5 | 86 | 38,460 | 0.17 | 2.78 | 1.81 | 17.48 | 27.69 | 0 | 22.57 | 32.34 | 34.74 |
| 01:01 | 3 | 15.5 | 86 | 38,460 | 0.19 | 1.95 | 1.82 | 19.52 | 22.29 | 0 | 21.72 | 29.59 | 32.55 |
| 01:00 | 3 | 15.6 | 86 | 38,460 | 0.18 | 1.51 | 1.9 | 15.08 | 30.85 | 0 | 20.86 | 31.65 | 32.14 |
| 00:59 | 3 | 15.6 | 86 | 38,460 | 0.17 | 2.86 | 1.84 | 15.08 | 31.11 | 0 | 23.43 | 33.03 | 34.09 |
| 00:58 | 3 | 15.6 | 86 | 38,460 | 0.18 | 4.42 | 1.85 | 25.95 | 22.77 | 0 | 22.57 | 32.37 | 33.51 |
| 00:57 | 3 | 15.6 | 86 | 38,460 | 0.18 | 2.21 | 1.68 | 16.49 | 27.55 | 0 | 22.57 | 33.04 | 35.42 |